Weather in Pivkino

Russia / Kurgan Oblast     55°15′41″N   62°22′51″E
temp.,
°C
wind,
m/s
gust,
m/s
humid.,
%
clouds,
%
prec.,
mm/h
press.,
hPa
HPBL,
m
26 february, fri
fri2623:00−24w239834 0.0 103020
02:00−25w239859 0.0 102920
05:00−27wsw229530 0.0 103019
08:00−27ssw22953 0.0 102919
11:00−23s34871 0.0 1029187
14:00−20s35910 0.0 1029305
17:00−22sse46931 0.0 1028247
20:00−27sse45950 0.0 102983
27 february, sat
sat2723:00−29s44940 0.0 102875
02:00−29s47940 0.0 102691
05:00−29sse47950 0.0 1025124
08:00−29sse49981 0.0 1024161
11:00−24sse599747 0.0 1022282
14:00−19se71194100 0.1 1018457
17:00−14se61295100 0.8 1015660
20:00−11se71293100 0.9 1013739
28 february, sun
sun2823:00−11se61293100 1.4 1010602
02:00−11se61194100 0.4 1008475
05:00−11ese4995100 0.8 1007350
08:00−11e4895100 0.3 1006262
11:00−9e469499 0.4 1006347
14:00−8ene4693100 0.1 1005410
17:00−8ene4794100 0.4 1006424
20:00−10ne489599 0.4 1007291
1 march, mon
mon123:00−12nne589597 0.6 1008269
02:00−15nne599597 0.3 1009272
05:00−16nne589598 0.5 1011308
08:00−17n4896100 0.3 1013302
11:00−16n5793100 0.4 1015352
14:00−15n4691100 0.1 1017415
17:00−15nnw3592100 0.1 1018465
20:00−18nnw339699 0.1 102059
2 march, tue
tue223:00−21nw239574 0.1 102120
02:00−22w23970 0.0 102020
05:00−22wsw34980 0.0 102031
08:00−22wsw33951 0.0 101927
11:00−17sw46910 0.0 1018199
14:00−13ssw47910 0.0 1016310
17:00−12ssw589139 0.0 1014297
20:00−14ssw51092100 0.0 1012225